Wind_Speed
39 39 40 41 42 42 43 43 43 43 44 46 46 46 46 47 47 47 47 46 46 46 47 47 47 47 48 48 49 49 48 49 49 48 47 46 46 46 47 48 48 49 49
38 39 39 40 41 41 42 42 43 43 44 45 45 45 45 46 46 46 46 47 47 47 47 47 48 49 49 49 50 49 49 49 49 49 48 47 47 47 48 48 48 49 49
38 38 39 40 40 40 41 42 43 43 44 45 45 45 45 46 46 46 47 48 48 48 48 48 48 49 49 49 49 50 50 50 50 50 50 49 48 48 48 48 49 49 50
37 39 39 39 40 40 41 41 42 43 44 45 45 45 45 45 46 46 47 48 48 48 49 49 49 49 49 49 49 50 50 51 51 50 49 49 49 49 48 48 49 49 49
36 37 39 39 39 40 40 41 42 42 43 44 44 44 45 46 46 47 46 47 47 48 48 49 49 49 49 49 50 50 50 50 50 50 50 50 49 49 49 48 49 50 50
34 36 37 38 39 39 39 40 41 42 42 43 43 44 45 45 46 46 46 46 46 47 47 48 49 49 49 50 49 49 49 49 49 50 50 49 49 49 50 49 49 49 49
34 35 35 36 37 38 38 39 40 41 42 43 43 43 43 44 45 45 45 45 45 46 47 48 49 49 50 49 49 48 49 49 49 50 49 49 48 48 49 49 48 48 48
33 34 35 36 36 37 38 38 40 40 41 42 42 42 42 42 43 44 44 45 46 46 47 47 47 48 48 48 48 48 48 48 48 48 48 48 47 47 47 47 47 47 47
33 34 35 36 37 37 37 38 39 40 40 41 41 41 41 41 42 43 44 45 45 45 46 46 46 47 47 47 47 48 48 47 47 46 46 46 46 45 45 45 45 45 44
32 32 34 35 36 36 37 37 38 39 39 40 40 40 41 41 41 42 43 44 44 44 44 44 44 45 46 46 47 47 47 46 45 45 44 43 43 43 43 43 43 43 43
30 31 32 33 34 35 36 37 37 37 38 38 39 39 40 40 40 40 41 42 43 43 43 43 43 43 43 44 45 45 45 45 45 44 43 42 42 41 41 41 41 42 42
29 30 31 32 33 34 35 35 36 36 36 37 38 38 39 39 40 40 40 41 41 42 42 42 42 42 42 42 43 44 44 44 44 43 42 41 41 40 40 40 40 40 40
29 29 30 31 31 32 34 34 35 36 36 36 37 38 38 39 39 39 39 40 39 40 40 41 41 42 42 42 42 43 42 43 42 41 41 40 40 40 40 40 39 39 39
29 29 29 30 31 32 33 33 34 35 35 36 37 37 37 38 38 38 39 39 39 39 39 40 41 41 41 41 41 41 41 41 40 40 39 39 40 40 40 39 39 38 38
28 29 29 30 30 31 32 33 33 33 34 35 35 36 36 37 38 38 38 38 38 38 39 39 40 40 40 39 39 39 39 40 40 39 39 39 39 39 38 38 39 39 38
29 29 29 30 30 30 31 31 31 32 32 33 34 34 35 36 36 37 36 37 37 37 37 37 38 38 38 38 38 38 38 38 38 38 38 38 38 37 38 38 39 39 38
29 29 30 30 30 30 29 30 30 30 31 32 32 33 34 35 35 35 35 35 34 35 35 35 35 35 36 36 36 36 36 37 37 37 37 37 37 36 37 37 38 38 38
28 28 29 29 29 29 29 29 29 30 31 31 31 32 33 34 34 34 34 33 32 31 32 32 32 32 32 33 34 34 34 34 34 35 36 36 36 37 37 37 37 37 37
28 28 28 28 28 29 29 29 29 29 30 30 30 30 30 31 31 31 30 30 29 29 29 29 29 29 29 30 31 31 32 32 32 32 33 34 34 35 35 35 36 36 36
28 28 27 27 28 28 28 28 28 28 29 29 29 29 29 30 29 29 28 27 26 26 26 26 27 26 26 27 28 28 29 30 30 31 31 32 33 33 33 33 34 34 34
28 27 27 28 28 28 28 28 27 27 27 27 28 28 28 27 27 26 26 26 25 25 25 25 24 25 25 25 25 26 26 27 28 30 30 31 31 31 31 32 32 31 31
27 28 28 28 28 28 28 27 27 26 26 26 26 26 26 26 25 24 25 24 24 24 23 23 23 23 24 24 24 24 25 26 27 28 29 29 30 30 31 31 31 30 30
28 28 28 28 27 27 27 27 26 25 24 24 25 25 25 24 23 23 23 22 22 22 22 22 22 22 23 23 23 23 24 24 25 26 26 28 28 29 29 29 29 29 29
27 27 27 26 26 25 25 24 23 23 23 23 23 23 22 22 21 21 21 21 21 21 20 21 21 22 22 22 23 22 23 23 23 24 25 26 27 27 26 27 26 26 26
27 27 26 26 25 25 24 24 23 23 22 22 22 22 20 20 19 19 20 20 20 20 20 20 20 21 22 22 22 22 22 22 22 23 24 24 24 24 24 24 24 24 23
25 25 25 24 24 24 23 23 23 22 22 22 20 19 18 18 18 18 19 19 19 19 19 19 19 20 20 20 21 22 23 22 22 22 22 22 22 21 21 21 21 20 20
Wind_Direction
258 257 257 257 258 258 258 258 257 258 258 258 259 259 259 260 260 260 261 262 262 263 263 263 264 265 265 265 265 265 265 266 266 265 265 265 266 268 268 268 268 268 268
258 258 258 258 258 259 258 257 258 259 259 259 259 260 260 261 261 261 262 262 263 263 263 263 265 265 265 265 265 264 264 265 265 265 265 265 266 268 268 269 269 268 268
260 259 260 260 259 259 259 258 258 259 260 260 260 259 259 261 261 261 262 262 262 263 263 264 265 265 265 265 264 264 264 264 265 266 267 267 267 267 268 269 269 269 269
261 260 260 260 259 259 258 259 260 260 260 260 259 260 260 261 262 263 263 264 264 264 264 264 264 265 265 264 264 265 265 265 265 267 268 269 269 268 268 268 269 269 269
263 262 260 260 260 260 259 260 260 260 260 260 260 260 260 261 263 263 264 264 265 265 264 264 264 266 265 265 264 264 265 265 265 267 268 269 269 270 270 268 268 269 269
263 263 262 261 261 262 261 260 260 259 260 260 261 260 261 262 263 263 264 264 265 265 264 264 265 265 265 265 265 265 265 265 266 267 268 269 269 270 270 270 268 268 269
265 264 264 263 263 263 263 263 262 260 260 261 261 262 262 263 263 263 264 264 265 266 266 265 265 265 265 265 265 265 266 265 266 267 268 268 269 270 270 270 268 268 268
265 266 265 265 265 264 264 264 264 263 262 262 262 262 263 263 264 264 264 265 266 266 266 265 266 266 265 265 265 264 265 266 266 267 268 269 269 270 270 269 269 268 269
267 268 267 266 266 265 265 265 265 265 265 265 264 264 264 264 265 266 266 266 266 266 265 265 265 265 265 265 265 265 265 265 266 267 269 270 269 269 269 269 269 270 268
271 271 270 269 267 265 265 265 266 267 268 267 266 266 266 266 267 268 268 267 268 268 267 266 266 266 266 266 265 265 265 265 265 266 268 269 269 269 269 269 269 269 269
271 272 272 271 269 267 266 266 266 268 269 269 268 267 266 267 267 269 270 270 270 269 268 267 266 266 266 265 265 265 265 264 264 265 266 268 268 269 269 269 268 269 270
274 273 274 273 271 270 269 268 268 269 269 269 269 268 267 267 268 269 270 271 270 269 267 266 265 265 265 265 264 265 265 265 264 264 265 266 267 268 268 268 268 269 270
278 277 278 277 275 273 272 271 270 271 270 269 270 269 269 269 270 270 271 271 270 269 267 266 266 265 265 265 265 266 265 264 264 264 264 264 266 267 268 268 268 269 271
281 280 280 280 277 275 274 272 272 272 272 271 271 271 271 271 271 272 271 271 271 271 270 268 266 265 265 266 266 266 264 263 263 263 263 264 265 267 268 268 269 270 272
281 282 281 281 280 277 275 273 273 274 274 273 272 272 272 272 273 273 272 271 271 272 270 269 266 265 265 265 265 264 263 262 263 263 263 264 265 266 266 267 268 269 272
282 283 282 282 283 281 279 277 276 276 276 275 274 273 273 273 274 274 273 273 272 272 270 268 267 265 264 264 264 264 264 263 263 262 262 263 265 266 267 268 269 270 272
283 283 284 283 284 283 282 281 279 279 279 277 276 275 275 275 275 274 274 275 274 273 271 269 268 266 264 263 264 264 263 262 262 262 262 262 264 266 268 269 269 269 272
283 284 285 284 284 284 283 283 283 283 282 280 278 278 277 276 276 274 273 274 274 275 272 271 270 267 264 263 264 264 262 261 261 261 262 262 264 266 267 269 269 270 272
283 284 284 284 284 285 284 284 284 284 283 281 279 280 279 278 278 275 273 274 275 275 273 271 270 267 265 265 265 264 262 260 260 260 261 262 264 266 268 269 269 270 271
283 283 284 285 285 286 286 286 285 283 283 282 279 281 281 281 278 274 272 273 274 275 274 272 269 268 269 269 267 265 264 262 261 261 262 263 264 266 267 268 268 270 270
282 282 282 284 286 286 286 287 287 284 282 281 280 281 282 280 278 273 272 272 273 273 272 271 270 268 267 268 268 268 267 264 262 262 263 264 265 267 267 267 269 270 270
282 282 282 284 286 287 286 287 286 283 282 283 282 282 282 281 277 272 272 272 272 272 272 272 271 269 267 268 269 269 268 266 265 265 265 264 266 268 268 268 270 271 271
283 284 283 284 284 286 286 288 286 283 283 284 285 284 283 279 275 271 270 271 272 272 273 272 270 270 270 270 270 270 269 269 270 269 268 268 268 269 270 269 270 270 271
284 283 282 283 284 285 285 286 286 285 285 285 286 285 283 278 273 268 269 271 272 272 273 273 271 271 272 273 271 271 272 272 272 271 271 271 271 271 269 268 268 269 270
287 286 284 284 284 285 284 283 285 287 286 285 286 283 279 277 272 270 271 271 272 272 272 273 273 274 274 274 273 273 274 274 273 274 273 272 271 269 268 267 267 268 269
288 288 287 285 284 284 284 283 284 286 286 285 284 281 278 275 271 270 272 272 271 270 271 272 274 276 276 275 274 274 275 275 275 275 273 272 269 269 268 266 265 267 268
Height
5679 5681 5682 5683 5685 5686 5688 5689 5690 5692 5694 5695 5696 5698 5700 5701 5703 5704 5706 5707 5708 5709 5710 5711 5711 5712 5712 5712 5712 5713 5714 5714 5714 5715 5716 5717 5717 5717 5718 5718 5718 5718 5718
5669 5671 5672 5673 5675 5676 5678 5679 5681 5682 5683 5684 5686 5687 5689 5690 5692 5693 5694 5695 5696 5698 5698 5699 5699 5699 5700 5700 5700 5700 5701 5702 5702 5703 5704 5705 5707 5706 5705 5705 5705 5705 5706
5660 5661 5663 5664 5665 5666 5667 5668 5670 5671 5672 5674 5675 5676 5678 5679 5681 5682 5683 5683 5684 5685 5686 5686 5687 5687 5687 5687 5687 5688 5689 5690 5690 5690 5691 5692 5694 5694 5694 5693 5693 5693 5693
5650 5651 5653 5654 5655 5656 5657 5659 5660 5661 5662 5663 5665 5666 5667 5668 5670 5671 5671 5672 5673 5673 5673 5674 5674 5675 5675 5675 5675 5675 5676 5677 5678 5678 5678 5679 5680 5681 5682 5682 5681 5680 5680
5641 5642 5643 5644 5645 5646 5647 5648 5649 5650 5651 5652 5654 5655 5656 5657 5658 5659 5659 5660 5660 5661 5661 5661 5661 5662 5662 5662 5662 5663 5663 5664 5665 5666 5666 5667 5667 5667 5668 5670 5669 5668 5668
5632 5632 5633 5635 5635 5636 5637 5637 5639 5640 5641 5641 5642 5643 5644 5645 5646 5646 5647 5648 5648 5648 5648 5648 5649 5649 5650 5650 5650 5650 5651 5652 5652 5653 5653 5654 5654 5655 5655 5656 5657 5657 5656
5623 5623 5624 5625 5626 5626 5627 5627 5628 5629 5630 5630 5631 5632 5633 5633 5634 5634 5635 5635 5635 5636 5636 5636 5636 5636 5637 5637 5637 5638 5639 5639 5640 5640 5640 5641 5641 5642 5642 5643 5644 5645 5645
5614 5614 5615 5616 5616 5617 5617 5617 5618 5618 5619 5619 5620 5620 5621 5622 5622 5622 5622 5623 5623 5623 5623 5623 5623 5624 5624 5624 5625 5626 5626 5627 5628 5628 5628 5629 5629 5629 5630 5630 5631 5632 5633
5605 5605 5606 5606 5606 5607 5607 5608 5608 5608 5608 5609 5609 5609 5610 5610 5610 5610 5610 5610 5611 5611 5610 5611 5611 5611 5611 5612 5612 5613 5614 5615 5615 5616 5617 5617 5618 5618 5618 5618 5619 5620 5621
5597 5596 5596 5596 5596 5597 5597 5597 5598 5598 5598 5598 5598 5598 5599 5599 5599 5599 5599 5598 5598 5598 5598 5598 5598 5598 5599 5599 5600 5601 5602 5602 5603 5605 5605 5606 5606 5607 5607 5607 5607 5607 5608
5589 5589 5588 5587 5587 5587 5587 5587 5588 5588 5588 5587 5587 5587 5587 5588 5588 5587 5587 5587 5586 5586 5585 5585 5586 5586 5586 5587 5588 5589 5590 5591 5592 5593 5594 5595 5596 5596 5596 5596 5596 5596 5597
5581 5580 5579 5579 5578 5578 5578 5578 5578 5578 5578 5577 5577 5576 5577 5577 5576 5576 5576 5575 5574 5573 5573 5573 5574 5574 5575 5575 5576 5577 5578 5579 5581 5582 5583 5585 5585 5586 5586 5586 5586 5586 5586
5573 5572 5571 5570 5569 5569 5568 5568 5568 5568 5567 5567 5566 5566 5566 5566 5565 5565 5564 5563 5563 5562 5562 5562 5562 5563 5563 5564 5565 5565 5566 5568 5569 5571 5572 5574 5574 5575 5575 5576 5576 5576 5576
5566 5564 5563 5562 5560 5560 5559 5558 5558 5558 5557 5557 5556 5556 5556 5555 5554 5554 5553 5552 5551 5551 5550 5550 5550 5551 5552 5552 5553 5553 5555 5556 5558 5560 5561 5563 5564 5564 5565 5565 5565 5565 5565
5558 5557 5555 5554 5552 5551 5550 5549 5549 5548 5547 5547 5546 5546 5545 5545 5544 5543 5542 5541 5540 5540 5539 5539 5539 5539 5540 5541 5542 5542 5543 5545 5547 5549 5551 5552 5553 5554 5554 5555 5555 5555 5555
5550 5549 5547 5546 5544 5543 5541 5540 5540 5539 5538 5537 5536 5536 5535 5534 5534 5533 5531 5531 5530 5529 5529 5528 5528 5529 5529 5530 5531 5532 5533 5534 5536 5538 5540 5541 5542 5543 5543 5544 5544 5545 5545
5542 5541 5539 5538 5536 5535 5533 5532 5531 5530 5529 5528 5527 5526 5525 5524 5523 5522 5521 5520 5519 5519 5518 5518 5518 5518 5519 5519 5520 5521 5523 5524 5526 5528 5529 5531 5532 5533 5533 5534 5534 5534 5534
5534 5533 5531 5530 5528 5527 5525 5524 5523 5521 5520 5519 5518 5517 5515 5514 5513 5512 5511 5510 5510 5509 5509 5509 5509 5509 5509 5510 5511 5511 5513 5514 5516 5517 5519 5520 5521 5522 5523 5524 5524 5524 5524
5527 5525 5523 5522 5520 5519 5517 5516 5515 5513 5512 5510 5509 5507 5506 5505 5504 5503 5502 5502 5501 5501 5500 5500 5500 5501 5501 5501 5502 5502 5504 5505 5506 5507 5509 5510 5512 5513 5513 5514 5514 5514 5514
5519 5517 5516 5514 5513 5511 5509 5508 5507 5505 5504 5502 5501 5499 5498 5497 5496 5495 5494 5494 5494 5493 5493 5493 5493 5493 5493 5493 5494 5494 5495 5496 5497 5499 5500 5501 5502 5503 5503 5504 5504 5505 5504
5511 5509 5508 5507 5505 5503 5502 5500 5499 5497 5496 5494 5493 5492 5490 5489 5488 5487 5487 5487 5487 5486 5486 5486 5486 5486 5486 5486 5486 5487 5487 5488 5489 5490 5491 5492 5492 5493 5493 5494 5495 5495 5495
5503 5501 5500 5498 5497 5495 5494 5492 5491 5489 5488 5487 5486 5484 5483 5481 5481 5480 5480 5480 5480 5480 5480 5479 5479 5479 5480 5480 5480 5480 5480 5480 5481 5482 5482 5483 5483 5484 5484 5485 5485 5486 5486
5494 5493 5491 5490 5489 5488 5486 5485 5484 5482 5480 5479 5478 5477 5476 5475 5474 5474 5474 5473 5473 5473 5473 5473 5473 5474 5473 5473 5473 5473 5473 5473 5474 5474 5474 5474 5475 5475 5475 5476 5476 5477 5477
5486 5485 5483 5482 5481 5480 5479 5478 5476 5475 5474 5472 5471 5470 5469 5468 5468 5468 5468 5468 5468 5467 5467 5467 5468 5468 5467 5467 5467 5467 5467 5467 5467 5467 5466 5467 5467 5467 5467 5468 5469 5469 5469
5478 5476 5475 5474 5473 5473 5472 5470 5469 5468 5467 5466 5465 5464 5463 5462 5462 5462 5462 5462 5462 5462 5462 5462 5462 5462 5462 5461 5461 5460 5460 5460 5460 5459 5460 5460 5460 5460 5460 5461 5461 5462 5462
5470 5469 5467 5466 5465 5464 5464 5463 5462 5461 5460 5459 5458 5458 5457 5457 5457 5457 5457 5457 5457 5457 5457 5456 5456 5456 5455 5455 5454 5454 5454 5453 5453 5453 5453 5453 5453 5453 5453 5453 5454 5455 5455